Wind_Speed
18 18 16 14 13 12 10 10 9 9 9 8 6 7 8 10 11 9 5 5 7 8 6 6 9 15 8 3 4 3 1 3 4 3 11 8 15 14 19 16 9 9 11 23 24
19 17 15 14 12 11 10 10 7 7 8 7 4 6 7 10 10 11 12 3 11 11 5 3 11 19 7 13 5 3 3 9 5 5 13 13 12 11 8 9 10 13 17 29 24
19 17 15 13 12 10 9 8 6 6 6 4 3 5 5 6 4 4 9 13 15 15 18 19 18 9 16 3 2 2 6 8 8 16 9 13 16 5 10 4 12 25 24 19 21
20 17 15 13 11 9 8 6 6 5 4 3 3 4 4 2 3 4 14 15 16 17 8 5 10 5 5 11 8 7 16 10 3 3 9 13 11 9 9 8 24 23 22 17 16
21 18 15 12 10 8 7 6 5 4 3 2 4 2 1 3 6 3 9 17 19 19 11 15 9 2 8 8 6 11 21 11 3 9 13 15 14 9 20 24 24 23 21 18 13
23 20 15 11 9 8 7 5 5 4 2 2 3 1 1 4 7 5 15 21 19 21 16 8 9 9 3 7 9 7 15 9 6 6 15 13 12 17 20 25 24 24 21 19 16
26 20 16 11 8 7 7 6 4 3 2 3 2 2 5 9 6 10 15 20 21 24 13 22 22 13 15 13 21 16 11 10 9 8 11 18 14 13 20 23 23 21 19 19 19
29 22 17 12 8 7 7 5 3 2 3 3 1 2 7 10 14 15 14 14 18 26 28 24 32 19 10 6 7 17 27 6 7 12 5 7 6 12 22 20 20 21 18 15 16
32 24 19 13 9 7 6 3 2 2 2 2 1 3 7 11 9 18 16 15 24 27 20 17 7 5 9 4 6 5 5 9 8 12 6 6 9 10 19 19 17 16 16 15 13
33 28 20 13 9 6 3 1 1 2 3 2 10 2 7 11 13 18 18 21 12 7 9 10 6 4 6 5 5 7 11 9 8 11 24 10 10 9 12 19 16 15 16 15 15
34 30 22 15 9 7 2 2 1 2 8 10 10 6 8 16 18 15 22 16 7 8 10 13 13 12 20 17 17 18 6 11 7 11 24 23 13 13 12 10 15 14 13 16 17
35 32 26 16 10 8 6 4 11 8 9 18 18 16 25 19 9 8 14 7 6 9 11 8 2 17 12 14 15 15 6 7 5 5 25 17 12 11 13 14 12 17 15 13 9
37 35 29 18 9 8 13 20 17 19 4 5 11 12 6 6 8 11 11 9 10 10 13 9 10 14 9 14 14 6 6 6 10 6 16 18 5 7 6 10 13 14 13 14 14
38 37 29 13 5 4 8 12 15 14 4 6 9 9 7 8 9 17 22 10 8 13 13 9 13 10 10 10 5 4 7 4 4 7 10 6 3 4 3 7 14 15 15 15 17
40 39 26 7 7 4 14 22 5 5 4 12 9 15 10 8 5 8 23 8 11 12 7 13 10 8 8 7 3 6 9 5 6 6 1 6 6 4 5 8 10 15 16 15 17
41 39 24 6 10 21 20 18 16 1 6 9 8 7 8 10 10 7 7 6 8 10 11 13 13 6 2 5 6 7 7 8 6 3 4 4 5 9 9 18 5 8 13 14 17
38 35 20 12 6 5 15 3 2 4 5 10 9 10 11 10 8 8 7 7 7 5 9 16 13 13 3 6 9 7 3 4 5 3 5 9 6 7 5 3 2 5 1 12 15
38 27 15 22 19 9 11 3 4 12 9 8 10 13 12 12 8 8 9 8 12 12 12 5 9 9 8 9 6 7 4 5 3 5 4 7 2 5 12 17 15 8 10 10 15
34 12 7 17 16 12 1 3 6 10 7 1 13 8 11 10 9 9 12 14 14 17 8 3 7 4 7 4 2 9 5 7 2 3 9 3 3 4 11 18 18 15 19 21 8
23 8 13 10 13 10 2 6 4 7 14 25 10 9 6 9 9 10 11 12 16 19 3 4 4 8 12 7 6 6 7 6 5 2 5 3 2 5 8 16 18 14 19 29 9
6 3 14 20 21 3 4 6 15 20 20 15 6 4 5 7 9 9 11 15 11 3 6 3 3 4 3 3 6 6 6 4 1 2 4 5 0 7 11 16 19 15 24 24 30
7 3 15 21 3 4 8 9 10 22 14 18 4 8 5 7 5 18 5 5 1 6 5 3 2 4 3 5 7 5 9 3 5 9 4 5 2 7 7 12 25 29 32 25 30
5 4 8 19 5 6 9 17 20 17 14 16 4 5 6 7 7 16 7 9 7 7 2 5 3 5 5 7 10 5 7 4 4 5 1 5 4 6 7 8 12 3 12 8 13
3 4 3 3 6 9 11 11 16 15 4 15 5 7 7 8 9 4 5 3 18 4 4 5 3 3 3 6 4 8 8 8 5 5 1 4 6 6 11 13 11 14 17 3 3
2 4 7 5 6 14 16 10 12 8 10 22 6 5 7 7 9 8 15 15 24 8 4 4 4 3 9 11 13 6 5 8 6 5 3 9 15 17 21 20 16 12 6 5 12
5 5 6 7 12 13 11 9 11 12 5 7 3 17 9 7 6 8 9 6 1 3 5 3 4 3 7 10 10 5 9 3 6 4 3 7 9 16 15 2 13 17 7 7 10
16 11 4 6 9 10 12 16 20 16 11 15 15 7 14 12 8 8 9 11 9 4 4 4 5 2 7 9 6 3 8 3 4 6 6 6 7 22 16 15 18 11 11 11 13
Wind_Direction
336 333 329 323 318 313 312 303 296 288 285 288 295 290 295 299 301 293 244 246 172 147 143 178 206 255 234 312 39 352 268 337 299 133 148 139 113 99 65 121 166 167 138 162 157
339 335 330 325 319 314 311 307 307 291 285 289 292 284 294 310 311 252 246 229 123 131 92 155 45 49 50 323 83 52 281 198 236 58 133 122 108 99 111 115 72 80 119 150 147
343 339 334 327 320 317 316 319 305 287 283 287 279 277 298 338 285 213 202 173 129 136 95 82 91 69 82 327 339 136 238 178 64 86 101 99 141 101 131 155 142 135 142 148 151
346 342 338 331 327 321 320 315 301 287 282 270 258 277 312 18 48 146 170 164 151 162 95 65 48 60 88 172 254 272 242 261 91 173 148 119 136 124 175 163 136 137 144 154 156
349 345 342 338 332 331 324 314 301 291 278 255 254 294 358 219 256 216 176 168 159 162 185 110 76 58 153 222 298 240 269 101 131 87 86 109 101 73 113 117 126 136 148 147 161
354 348 345 338 339 340 333 315 293 287 275 243 255 341 291 248 159 168 151 159 165 178 182 157 169 187 189 267 254 290 285 150 152 104 108 93 105 100 115 129 134 144 153 157 158
359 352 344 335 335 340 332 320 290 280 253 233 247 60 262 251 163 153 165 168 176 192 189 180 169 167 180 247 215 224 281 139 146 134 108 106 88 99 141 135 143 147 160 170 165
3 354 346 332 328 331 332 322 297 251 224 230 245 142 252 213 183 150 180 191 216 221 233 195 175 205 186 239 274 159 228 143 163 115 54 75 124 129 123 134 143 149 163 161 173
2 356 345 331 319 323 327 327 284 224 204 220 250 208 269 173 202 185 180 217 221 234 236 243 212 278 295 21 345 235 155 145 162 142 105 44 133 153 135 131 148 151 160 167 176
359 356 344 329 308 304 309 273 299 216 214 266 265 257 256 217 192 209 194 228 249 253 252 224 106 260 315 36 279 287 154 165 158 140 69 308 134 127 128 139 149 150 161 174 181
357 354 345 328 296 279 177 332 345 272 236 201 188 236 307 199 190 198 203 227 260 275 267 276 125 241 237 218 252 270 210 152 159 149 139 206 148 146 137 128 149 156 163 178 190
356 352 346 326 294 251 225 247 252 265 267 221 254 243 269 193 173 191 203 214 248 254 275 297 134 236 251 281 281 277 118 144 140 167 130 147 142 151 151 151 162 160 169 180 174
354 351 344 328 300 253 223 238 283 294 287 230 212 228 240 143 210 198 195 216 240 272 273 262 223 211 244 274 285 316 88 153 166 190 125 114 115 155 151 151 167 167 173 175 173
350 348 341 329 304 273 236 283 264 255 296 228 210 233 191 180 236 220 191 185 234 240 267 268 264 219 254 268 346 47 337 359 316 133 152 153 180 332 218 190 174 175 178 185 181
345 343 336 282 281 263 249 325 310 236 297 162 206 155 170 191 234 238 173 178 241 267 290 259 282 279 243 266 3 268 304 302 283 276 160 84 82 281 336 243 198 181 185 185 180
340 337 328 289 243 260 290 297 308 308 245 181 138 183 150 223 252 118 155 173 227 250 276 265 278 276 307 311 306 258 272 292 274 223 70 199 108 212 228 205 191 182 181 166 162
331 329 302 204 215 311 321 264 306 224 291 149 164 162 205 214 234 154 173 197 221 223 253 268 244 256 186 279 282 260 280 302 351 0 185 179 121 224 207 99 60 351 168 175 176
328 320 285 244 242 284 315 345 265 273 284 247 161 182 200 205 149 173 184 214 232 229 261 273 302 217 199 214 243 294 191 170 209 240 157 143 52 357 58 55 48 19 347 352 189
330 320 258 270 226 224 336 256 226 258 259 306 172 188 218 178 148 178 195 210 224 222 207 181 306 279 162 251 22 298 344 256 264 262 112 61 25 252 38 38 40 9 334 293 291
329 290 240 225 166 174 184 253 227 276 312 304 200 213 193 205 153 195 200 229 231 226 188 220 181 240 269 194 271 197 242 342 343 29 107 90 186 200 61 61 30 25 318 295 320
311 268 245 185 156 168 216 227 291 274 279 289 56 342 21 356 328 248 229 232 205 132 149 39 30 283 38 36 311 343 314 326 126 117 157 150 280 166 154 145 148 143 236 249 257
312 273 145 161 169 204 228 247 273 288 316 289 330 323 94 219 268 307 213 87 47 121 119 186 204 297 190 84 22 302 296 299 119 298 40 116 48 121 150 170 172 184 208 235 255
307 271 266 179 226 252 248 257 255 238 305 277 204 261 279 198 179 263 63 35 53 52 70 345 333 1 14 8 343 307 293 8 353 80 40 108 210 181 179 179 235 266 277 311 88
280 300 320 210 213 254 282 283 286 284 293 283 316 345 343 337 314 230 152 23 335 112 130 72 268 209 186 205 261 290 323 354 31 82 220 162 150 184 156 173 193 228 255 301 255
272 346 17 343 339 319 311 287 314 336 357 329 330 277 282 312 318 5 10 126 232 170 150 154 239 298 296 178 229 238 306 321 347 324 86 170 152 178 179 176 186 221 218 336 317
11 353 342 291 311 320 312 318 315 314 320 285 247 332 338 62 44 344 360 352 79 264 147 210 277 305 296 291 284 255 279 238 265 270 293 164 160 182 180 196 171 213 216 260 293
7 323 265 290 314 317 354 345 339 15 354 9 10 1 303 21 14 329 305 291 287 308 259 179 169 208 255 267 298 23 284 2 17 44 73 51 156 166 178 189 206 200 203 220 236
Height
767 764 760 758 756 754 754 754 753 753 753 753 754 753 753 752 751 750 748 744 745 748 748 749 754 754 749 751 762 763 779 783 756 747 746 730 737 736 738 750 748 755 763 770 777
766 762 759 757 755 753 752 752 752 751 751 752 753 752 752 751 750 746 740 743 745 747 750 752 759 761 776 765 771 780 783 762 740 728 735 729 735 742 750 758 763 763 764 773 780
764 761 758 755 753 752 751 751 750 750 750 751 752 751 751 751 751 735 733 742 745 745 749 755 759 762 783 779 763 776 777 732 725 722 721 730 738 735 750 764 759 768 772 776 780
763 760 757 754 752 751 750 750 750 749 750 750 751 751 751 751 759 733 736 740 744 744 749 751 762 767 781 783 772 780 741 734 722 715 721 734 734 746 745 742 752 762 770 777 783
762 759 756 753 751 750 750 749 749 749 749 750 750 751 751 753 742 733 735 738 743 748 747 757 764 763 774 770 765 770 747 722 719 717 721 723 737 738 746 746 755 767 775 780 786
761 758 755 753 751 750 749 749 749 749 749 750 750 751 752 755 731 731 733 736 741 744 746 746 758 756 764 768 770 749 745 726 719 718 718 730 738 738 748 752 762 769 776 781 787
761 757 754 752 751 750 749 748 748 749 749 749 750 751 750 742 729 730 734 735 738 738 740 747 748 762 757 762 752 758 758 723 722 721 730 727 754 756 750 752 764 771 775 780 785
762 757 754 752 750 749 749 748 748 748 749 749 750 752 747 726 728 729 733 736 735 735 734 737 742 734 743 728 731 745 751 755 726 724 732 734 780 751 749 756 769 772 776 778 782
762 757 753 751 750 749 748 748 748 748 749 749 751 751 744 725 726 726 729 729 728 727 728 730 732 734 729 756 758 737 758 750 738 719 741 749 772 753 748 757 769 772 776 778 781
762 757 752 750 749 748 748 748 748 749 749 750 749 755 731 724 720 722 724 723 723 720 723 728 752 779 755 766 777 756 747 741 743 734 750 768 766 756 750 755 764 770 776 778 779
761 756 751 748 747 747 748 748 751 753 745 737 731 725 711 711 716 718 720 720 719 725 746 725 763 786 759 741 729 727 731 740 725 717 763 772 761 759 750 752 763 769 772 776 776
761 755 750 747 746 746 747 747 732 728 738 720 718 717 709 708 722 716 718 730 732 748 729 740 753 731 721 721 725 722 731 738 722 711 735 755 763 753 750 753 755 762 767 770 771
759 754 749 745 743 744 742 733 724 723 736 718 710 712 707 707 719 719 716 723 737 746 739 752 735 710 719 723 728 725 731 733 738 721 728 745 770 759 749 749 754 756 759 764 769
757 752 747 743 747 742 736 722 722 728 757 729 720 708 705 706 722 701 705 719 730 746 735 736 710 715 720 726 719 739 709 710 721 748 775 733 809 783 760 759 756 756 757 762 767
753 749 744 743 740 738 724 720 721 723 801 720 713 692 697 715 705 706 699 711 737 735 731 741 725 721 727 719 704 728 704 713 717 735 741 770 803 782 769 771 760 755 753 751 757
749 744 740 739 738 724 722 722 722 765 783 724 703 714 719 712 708 699 708 703 707 727 723 725 696 704 703 698 699 696 711 717 721 739 791 778 789 798 777 755 756 748 747 746 751
743 738 735 736 729 725 722 725 765 783 706 724 724 713 719 723 717 715 725 734 749 761 757 727 717 698 690 714 703 709 733 784 786 778 795 764 777 774 751 755 752 753 755 744 746
735 730 725 721 722 727 722 744 781 739 729 701 706 710 726 715 719 718 729 743 723 730 743 752 758 712 692 709 719 716 723 774 785 793 781 762 780 796 763 754 754 752 760 756 742
730 724 720 711 717 726 733 769 756 730 706 703 704 720 724 708 714 720 726 728 714 709 743 747 740 688 686 684 695 718 742 709 742 731 782 787 779 768 762 761 763 758 754 742 750
730 724 710 710 714 722 743 756 729 698 696 696 723 705 723 715 720 723 724 699 702 688 684 710 745 702 692 683 688 703 699 747 752 772 800 790 804 799 788 785 783 777 758 746 756
730 724 696 704 712 724 754 740 715 695 688 697 703 712 711 722 720 719 712 691 681 682 680 694 721 720 700 713 722 722 732 723 729 745 781 801 799 781 783 786 790 791 769 771 772
735 734 699 702 728 725 736 721 707 693 685 687 683 693 709 713 726 714 703 689 667 674 701 689 717 746 720 695 697 705 716 717 767 764 757 776 802 769 773 776 778 776 779 773 769
744 724 698 697 737 730 714 709 698 699 704 695 689 686 684 705 728 705 694 676 671 686 704 699 731 766 740 728 710 718 710 702 714 733 756 782 797 765 768 774 764 758 761 748 732
746 735 707 698 699 713 718 713 708 681 685 681 685 683 694 705 694 700 698 691 682 686 688 691 718 738 770 750 723 731 714 708 717 764 751 757 783 775 769 761 754 748 751 750 742
740 734 736 737 728 720 711 706 707 706 697 692 687 689 699 717 710 710 694 686 692 689 685 698 733 716 721 715 712 715 711 711 724 721 746 753 760 761 746 736 742 742 742 746 754
763 763 749 748 725 720 712 713 709 701 700 707 707 698 691 720 719 726 713 707 703 693 695 694 733 715 732 713 711 717 711 704 708 708 709 722 748 733 735 735 734 732 738 748 758
774 768 762 746 735 730 730 725 713 706 699 700 707 707 706 707 697 696 693 690 690 698 705 706 722 734 754 722 716 737 717 706 705 704 710 736 721 727 743 737 729 734 739 748 754